Location: Altleiningen
(49.5078°N, 8.0741°E)
Time: 03:14:05
(UTC+00:00)

FALCON 9 DEB - Pass Details

Date: 03 March 2021
Orbit: 424 x 435 km, 53.0° (Epoch: 11 April)

Event Time Altitude Azimuth Distance (km) Brightness Sun altitude
Rises 18:20:02 0° 293° (WNW) 2,405 8.4 -11.5°
Reaches altitude 10° 18:22:10 10° 292° (WNW) 1,533 7.2 -11.9°
Maximum altitude 18:25:36 79° 206° (SSW) 442 3.1 -12.4°
Enters shadow 18:27:50 20° 121° (ESE) 1,052 4.5 -12.8°
